Year,Month,Day,Hour,Minute,Value (Times are PST for temperature in C)
2018,05,31,00,00,9.10
2018,05,31,00,01,9.10
2018,05,31,00,02,9.10
2018,05,31,00,03,9.10
2018,05,31,00,04,9.00
2018,05,31,00,05,9.00
2018,05,31,00,06,9.00
2018,05,31,00,07,8.90
2018,05,31,00,08,8.90
2018,05,31,00,09,8.90
2018,05,31,00,10,8.90
2018,05,31,00,11,8.90
2018,05,31,00,12,8.90
2018,05,31,00,13,8.90
2018,05,31,00,14,8.90
2018,05,31,00,15,8.90
2018,05,31,00,16,8.90
2018,05,31,00,17,8.90
2018,05,31,00,18,8.80
2018,05,31,00,19,8.80
2018,05,31,00,20,8.80
2018,05,31,00,21,8.80
2018,05,31,00,22,8.80
2018,05,31,00,23,8.80
2018,05,31,00,24,8.80
2018,05,31,00,25,8.70
2018,05,31,00,26,8.70
2018,05,31,00,27,8.70
2018,05,31,00,28,8.70
2018,05,31,00,29,8.70
2018,05,31,00,30,8.70
2018,05,31,00,31,8.70
2018,05,31,00,32,8.70
2018,05,31,00,33,8.70
2018,05,31,00,34,8.70
2018,05,31,00,35,8.70
2018,05,31,00,36,8.60
2018,05,31,00,37,8.60
2018,05,31,00,38,8.60
2018,05,31,00,39,8.60
2018,05,31,00,40,8.50
2018,05,31,00,41,8.50
2018,05,31,00,42,8.50
2018,05,31,00,43,8.40
2018,05,31,00,44,8.40
2018,05,31,00,45,8.40
2018,05,31,00,46,8.40
2018,05,31,00,47,8.40
2018,05,31,00,48,8.40
2018,05,31,00,49,8.30
2018,05,31,00,50,8.30
2018,05,31,00,51,8.30
2018,05,31,00,52,8.30
2018,05,31,00,53,8.30
2018,05,31,00,54,8.30
2018,05,31,00,55,8.20
2018,05,31,00,56,8.20
2018,05,31,00,57,8.20
2018,05,31,00,58,8.10
2018,05,31,00,59,8.10
2018,05,31,01,00,8.10
2018,05,31,01,01,8.10
2018,05,31,01,02,8.10
2018,05,31,01,03,8.00
2018,05,31,01,04,8.00
2018,05,31,01,05,8.00
2018,05,31,01,06,8.00
2018,05,31,01,07,8.00
2018,05,31,01,08,8.00
2018,05,31,01,09,8.00
2018,05,31,01,10,8.00
2018,05,31,01,11,7.90
2018,05,31,01,12,7.90
2018,05,31,01,13,7.90
2018,05,31,01,14,7.90
2018,05,31,01,15,7.90
2018,05,31,01,16,7.90
2018,05,31,01,17,7.90
2018,05,31,01,18,7.80
2018,05,31,01,19,7.80
2018,05,31,01,20,7.80
2018,05,31,01,21,7.80
2018,05,31,01,22,7.80
2018,05,31,01,23,7.80
2018,05,31,01,24,7.80
2018,05,31,01,25,7.80
2018,05,31,01,26,7.80
2018,05,31,01,27,7.80
2018,05,31,01,28,7.80
2018,05,31,01,29,7.80
2018,05,31,01,30,7.70
2018,05,31,01,31,7.70
2018,05,31,01,32,7.70
2018,05,31,01,33,7.70
2018,05,31,01,34,7.70
2018,05,31,01,35,7.70
2018,05,31,01,36,7.70
2018,05,31,01,37,7.70
2018,05,31,01,38,7.60
2018,05,31,01,39,7.60
2018,05,31,01,40,7.60
2018,05,31,01,41,7.60
2018,05,31,01,42,7.50
2018,05,31,01,43,7.50
2018,05,31,01,44,7.50
2018,05,31,01,45,7.40
2018,05,31,01,46,7.40
2018,05,31,01,47,7.40
2018,05,31,01,48,7.40
2018,05,31,01,49,7.40
2018,05,31,01,50,7.40
2018,05,31,01,51,7.40
2018,05,31,01,52,7.40
2018,05,31,01,53,7.40
2018,05,31,01,54,7.40
2018,05,31,01,55,7.40
2018,05,31,01,56,7.40
2018,05,31,01,57,7.30
2018,05,31,01,58,7.30
2018,05,31,01,59,7.30
2018,05,31,02,00,7.30
2018,05,31,02,01,7.30
2018,05,31,02,02,7.30
2018,05,31,02,03,7.30
2018,05,31,02,04,7.30
2018,05,31,02,05,7.30
2018,05,31,02,06,7.20
2018,05,31,02,07,7.20
2018,05,31,02,08,7.20
2018,05,31,02,09,7.20
2018,05,31,02,10,7.20
2018,05,31,02,11,7.20
2018,05,31,02,12,7.20
2018,05,31,02,13,7.20
2018,05,31,02,14,7.20
2018,05,31,02,15,7.20
2018,05,31,02,16,7.20
2018,05,31,02,17,7.10
2018,05,31,02,18,7.10
2018,05,31,02,19,7.10
2018,05,31,02,20,7.10
2018,05,31,02,21,7.10
2018,05,31,02,22,7.10
2018,05,31,02,23,7.10
2018,05,31,02,24,7.10
2018,05,31,02,25,7.10
2018,05,31,02,26,7.00
2018,05,31,02,27,7.00
2018,05,31,02,28,7.00
2018,05,31,02,29,7.00
2018,05,31,02,30,7.00
2018,05,31,02,31,7.00
2018,05,31,02,32,7.00
2018,05,31,02,33,6.90
2018,05,31,02,34,6.90
2018,05,31,02,35,6.90
2018,05,31,02,36,6.90
2018,05,31,02,37,6.90
2018,05,31,02,38,6.90
2018,05,31,02,39,6.90
2018,05,31,02,40,6.80
2018,05,31,02,41,6.80
2018,05,31,02,42,6.80
2018,05,31,02,43,6.80
2018,05,31,02,44,6.80
2018,05,31,02,45,6.80
2018,05,31,02,46,6.80
2018,05,31,02,47,6.80
2018,05,31,02,48,6.80
2018,05,31,02,49,6.80
2018,05,31,02,50,6.80
2018,05,31,02,51,6.70
2018,05,31,02,52,6.70
2018,05,31,02,53,6.70
2018,05,31,02,54,6.70
2018,05,31,02,55,6.70
2018,05,31,02,56,6.70
2018,05,31,02,57,6.70
2018,05,31,02,58,6.70
2018,05,31,02,59,6.70
2018,05,31,03,00,6.60
2018,05,31,03,01,6.60
2018,05,31,03,02,6.60
2018,05,31,03,03,6.60
2018,05,31,03,04,6.60
2018,05,31,03,05,6.60
2018,05,31,03,06,6.60
2018,05,31,03,07,6.50
2018,05,31,03,08,6.50
2018,05,31,03,09,6.50
2018,05,31,03,10,6.50
2018,05,31,03,11,6.50
2018,05,31,03,12,6.50
2018,05,31,03,13,6.50
2018,05,31,03,14,6.40
2018,05,31,03,15,6.40
2018,05,31,03,16,6.40
2018,05,31,03,17,6.40
2018,05,31,03,18,6.40
2018,05,31,03,19,6.40
2018,05,31,03,20,6.40
2018,05,31,03,21,6.40
2018,05,31,03,22,6.40
2018,05,31,03,23,6.40
2018,05,31,03,24,6.40
2018,05,31,03,25,6.40
2018,05,31,03,26,6.40
2018,05,31,03,27,6.40
2018,05,31,03,28,6.40
2018,05,31,03,29,6.40
2018,05,31,03,30,6.40
2018,05,31,03,31,6.40
2018,05,31,03,32,6.40
2018,05,31,03,33,6.40
2018,05,31,03,34,6.40
2018,05,31,03,35,6.40
2018,05,31,03,36,6.40
2018,05,31,03,37,6.40
2018,05,31,03,38,6.40
2018,05,31,03,39,6.40
2018,05,31,03,40,6.40
2018,05,31,03,41,6.40
2018,05,31,03,42,6.40
2018,05,31,03,43,6.40
2018,05,31,03,44,6.40
2018,05,31,03,45,6.30
2018,05,31,03,46,6.30
2018,05,31,03,47,6.30
2018,05,31,03,48,6.30
2018,05,31,03,49,6.30
2018,05,31,03,50,6.30
2018,05,31,03,51,6.30
2018,05,31,03,52,6.30
2018,05,31,03,53,6.30
2018,05,31,03,54,6.30
2018,05,31,03,55,6.30
2018,05,31,03,56,6.30
2018,05,31,03,57,6.30
2018,05,31,03,58,6.30
2018,05,31,03,59,6.30
2018,05,31,04,00,6.20
2018,05,31,04,01,6.20
2018,05,31,04,02,6.20
2018,05,31,04,03,6.20
2018,05,31,04,04,6.20
2018,05,31,04,05,6.20
2018,05,31,04,06,6.30
2018,05,31,04,07,6.30
2018,05,31,04,08,6.30
2018,05,31,04,09,6.30
2018,05,31,04,10,6.30
2018,05,31,04,11,6.30
2018,05,31,04,12,6.30
2018,05,31,04,13,6.30
2018,05,31,04,14,6.40
2018,05,31,04,15,6.40
2018,05,31,04,16,6.40
2018,05,31,04,17,6.40
2018,05,31,04,18,6.50
2018,05,31,04,19,6.50
2018,05,31,04,20,6.60
2018,05,31,04,21,6.70
2018,05,31,04,22,6.80
2018,05,31,04,23,6.90
2018,05,31,04,24,7.10
2018,05,31,04,25,7.30
2018,05,31,04,26,7.50
2018,05,31,04,27,7.70
2018,05,31,04,28,7.80
2018,05,31,04,29,8.00
2018,05,31,04,30,8.10
2018,05,31,04,31,8.30
2018,05,31,04,32,8.50
2018,05,31,04,33,8.60
2018,05,31,04,34,8.70
2018,05,31,04,35,8.80
2018,05,31,04,36,8.80
2018,05,31,04,37,8.90
2018,05,31,04,38,8.90
2018,05,31,04,39,9.00
2018,05,31,04,40,9.00
2018,05,31,04,41,9.10
2018,05,31,04,42,9.10
2018,05,31,04,43,9.10
2018,05,31,04,44,9.10
2018,05,31,04,45,9.20
2018,05,31,04,46,9.20
2018,05,31,04,47,9.20
2018,05,31,04,48,9.20
2018,05,31,04,49,9.10
2018,05,31,04,50,9.20
2018,05,31,04,51,9.20
2018,05,31,04,52,9.20
2018,05,31,04,53,9.20
2018,05,31,04,54,9.20
2018,05,31,04,55,9.10
2018,05,31,04,56,9.10
2018,05,31,04,57,9.10
2018,05,31,04,58,9.10
2018,05,31,04,59,9.10
2018,05,31,05,00,9.20
2018,05,31,05,01,9.20
2018,05,31,05,02,9.20
2018,05,31,05,03,9.20
2018,05,31,05,04,9.20
2018,05,31,05,05,9.20
2018,05,31,05,06,9.20
2018,05,31,05,07,9.20
2018,05,31,05,08,9.10
2018,05,31,05,09,9.10
2018,05,31,05,10,9.10
2018,05,31,05,11,9.00
2018,05,31,05,12,9.00
2018,05,31,05,13,8.90
2018,05,31,05,14,8.90
2018,05,31,05,15,8.90
2018,05,31,05,16,8.90
2018,05,31,05,17,8.90
2018,05,31,05,18,8.80
2018,05,31,05,19,8.80
2018,05,31,05,20,8.80
2018,05,31,05,21,8.70
2018,05,31,05,22,8.70
2018,05,31,05,23,8.70
2018,05,31,05,24,8.60
2018,05,31,05,25,8.60
2018,05,31,05,26,8.50
2018,05,31,05,27,8.50
2018,05,31,05,28,8.40
2018,05,31,05,29,8.30
2018,05,31,05,30,8.30
2018,05,31,05,31,8.20
2018,05,31,05,32,8.20
2018,05,31,05,33,8.20
2018,05,31,05,34,8.10
2018,05,31,05,35,8.10
2018,05,31,05,36,8.10
2018,05,31,05,37,8.00
2018,05,31,05,38,8.00
2018,05,31,05,39,7.90
2018,05,31,05,40,7.90
2018,05,31,05,41,7.90
2018,05,31,05,42,7.90
2018,05,31,05,43,7.90
2018,05,31,05,44,7.90
2018,05,31,05,45,7.90
2018,05,31,05,46,7.90
2018,05,31,05,47,7.90
2018,05,31,05,48,7.80
2018,05,31,05,49,7.80
2018,05,31,05,50,7.80
2018,05,31,05,51,7.80
2018,05,31,05,52,7.80
2018,05,31,05,53,7.80
2018,05,31,05,54,7.80
2018,05,31,05,55,7.80
2018,05,31,05,56,7.80
2018,05,31,05,57,7.80
2018,05,31,05,58,7.70
2018,05,31,05,59,7.70
2018,05,31,06,00,7.70
2018,05,31,06,01,7.70
2018,05,31,06,02,7.70
2018,05,31,06,03,7.70
2018,05,31,06,04,7.70
2018,05,31,06,05,7.70
2018,05,31,06,06,7.70
2018,05,31,06,07,7.70
2018,05,31,06,08,7.70
2018,05,31,06,09,7.60
2018,05,31,06,10,7.60
2018,05,31,06,11,7.60
2018,05,31,06,12,7.60
2018,05,31,06,13,7.60
2018,05,31,06,14,7.60
2018,05,31,06,15,7.60
2018,05,31,06,16,7.60
2018,05,31,06,17,7.60
2018,05,31,06,18,7.60
2018,05,31,06,19,7.60
2018,05,31,06,20,7.60
2018,05,31,06,21,7.60
2018,05,31,06,22,7.60
2018,05,31,06,23,7.50
2018,05,31,06,24,7.60
2018,05,31,06,25,7.50
2018,05,31,06,26,7.50
2018,05,31,06,27,7.50
2018,05,31,06,28,7.50
2018,05,31,06,29,7.50
2018,05,31,06,30,7.50
2018,05,31,06,31,7.50
2018,05,31,06,32,7.50
2018,05,31,06,33,7.50
2018,05,31,06,34,7.50
2018,05,31,06,35,7.50
2018,05,31,06,36,7.50
2018,05,31,06,37,7.50
2018,05,31,06,38,7.50
2018,05,31,06,39,7.50
2018,05,31,06,40,7.50
2018,05,31,06,41,7.50
2018,05,31,06,42,7.50
2018,05,31,06,43,7.50
2018,05,31,06,44,7.40
2018,05,31,06,45,7.50
2018,05,31,06,46,7.50
2018,05,31,06,47,7.50
2018,05,31,06,48,7.50
2018,05,31,06,49,7.50
2018,05,31,06,50,7.60
2018,05,31,06,51,7.60
2018,05,31,06,52,7.60
2018,05,31,06,53,7.60
2018,05,31,06,54,7.70
2018,05,31,06,55,7.70
2018,05,31,06,56,7.70
2018,05,31,06,57,7.70
2018,05,31,06,58,7.70
2018,05,31,06,59,7.70
2018,05,31,07,00,7.70
2018,05,31,07,01,7.70
2018,05,31,07,02,7.70
2018,05,31,07,03,7.80
2018,05,31,07,04,7.80
2018,05,31,07,05,7.80
2018,05,31,07,06,7.80
2018,05,31,07,07,7.90
2018,05,31,07,08,7.90
2018,05,31,07,09,7.90
2018,05,31,07,10,7.90
2018,05,31,07,11,8.00
2018,05,31,07,12,8.00
2018,05,31,07,13,8.10
2018,05,31,07,14,8.10
2018,05,31,07,15,8.10
2018,05,31,07,16,8.20
2018,05,31,07,17,8.20
2018,05,31,07,18,8.20
2018,05,31,07,19,8.20
2018,05,31,07,20,8.30
2018,05,31,07,21,8.30
2018,05,31,07,22,8.30
2018,05,31,07,23,8.30
2018,05,31,07,24,8.30
2018,05,31,07,25,8.40
2018,05,31,07,26,8.40
2018,05,31,07,27,8.40
2018,05,31,07,28,8.40
2018,05,31,07,29,8.50
2018,05,31,07,30,8.50
2018,05,31,07,31,8.50
2018,05,31,07,32,8.60
2018,05,31,07,33,8.60
2018,05,31,07,34,8.60
2018,05,31,07,35,8.60
2018,05,31,07,36,8.70
2018,05,31,07,37,8.70
2018,05,31,07,38,8.70
2018,05,31,07,39,8.70
2018,05,31,07,40,8.80
2018,05,31,07,41,8.80
2018,05,31,07,42,8.80
2018,05,31,07,43,8.80
2018,05,31,07,44,8.90
2018,05,31,07,45,8.90
2018,05,31,07,46,8.90
2018,05,31,07,47,8.90
2018,05,31,07,48,9.00
2018,05,31,07,49,9.00
2018,05,31,07,50,9.10
2018,05,31,07,51,9.10
2018,05,31,07,52,9.10
2018,05,31,07,53,9.10
2018,05,31,07,54,9.20
2018,05,31,07,55,9.20
2018,05,31,07,56,9.30
2018,05,31,07,57,9.30
2018,05,31,07,58,9.40
2018,05,31,07,59,9.40
2018,05,31,08,00,9.40
2018,05,31,08,01,9.50
2018,05,31,08,02,9.50
2018,05,31,08,03,9.50
2018,05,31,08,04,9.50
2018,05,31,08,05,9.50
2018,05,31,08,06,9.60
2018,05,31,08,07,9.60
2018,05,31,08,08,9.60
2018,05,31,08,09,9.70
2018,05,31,08,10,9.70
2018,05,31,08,11,9.80
2018,05,31,08,12,9.80
2018,05,31,08,13,9.80
2018,05,31,08,14,9.80
2018,05,31,08,15,9.80
2018,05,31,08,16,9.80
2018,05,31,08,17,9.90
2018,05,31,08,18,9.90
2018,05,31,08,19,10.00
2018,05,31,08,20,10.20
2018,05,31,08,21,10.20
2018,05,31,08,22,10.20
2018,05,31,08,23,10.30
2018,05,31,08,24,10.30
2018,05,31,08,25,10.30
2018,05,31,08,26,10.30
2018,05,31,08,27,10.30
2018,05,31,08,28,10.40
2018,05,31,08,29,10.40
2018,05,31,08,30,10.40
2018,05,31,08,31,10.50
2018,05,31,08,32,10.60
2018,05,31,08,33,10.60
2018,05,31,08,34,10.70
2018,05,31,08,35,10.70
2018,05,31,08,36,10.80
2018,05,31,08,37,10.80
2018,05,31,08,38,10.90
2018,05,31,08,39,10.90
2018,05,31,08,40,11.00
2018,05,31,08,41,11.00
2018,05,31,08,42,11.10
2018,05,31,08,43,11.10
2018,05,31,08,44,11.20
2018,05,31,08,45,11.30
2018,05,31,08,46,11.30
2018,05,31,08,47,11.40
2018,05,31,08,48,11.50
2018,05,31,08,49,11.50
2018,05,31,08,50,11.60
2018,05,31,08,51,11.60
2018,05,31,08,52,11.60
2018,05,31,08,53,11.70
2018,05,31,08,54,11.70
2018,05,31,08,55,11.70
2018,05,31,08,56,11.70
2018,05,31,08,57,11.80
2018,05,31,08,58,11.80
2018,05,31,08,59,11.90
2018,05,31,09,00,11.90
2018,05,31,09,01,11.90
2018,05,31,09,02,11.90
2018,05,31,09,03,11.90
2018,05,31,09,04,11.90
2018,05,31,09,05,12.00
2018,05,31,09,06,12.00
2018,05,31,09,07,12.00
2018,05,31,09,08,12.00
2018,05,31,09,09,11.90
2018,05,31,09,10,11.80
2018,05,31,09,11,11.80
2018,05,31,09,12,11.70
2018,05,31,09,13,11.60
2018,05,31,09,14,11.50
2018,05,31,09,15,11.50
2018,05,31,09,16,11.40
2018,05,31,09,17,11.40
2018,05,31,09,18,11.30
2018,05,31,09,19,11.30
2018,05,31,09,20,11.20
2018,05,31,09,21,11.20
2018,05,31,09,22,11.10
2018,05,31,09,23,11.10
2018,05,31,09,24,11.10
2018,05,31,09,25,11.00
2018,05,31,09,26,11.00
2018,05,31,09,27,11.00
2018,05,31,09,28,10.90
2018,05,31,09,29,10.90
2018,05,31,09,30,10.90
2018,05,31,09,31,10.90
2018,05,31,09,32,10.90
2018,05,31,09,33,10.90
2018,05,31,09,34,10.90
2018,05,31,09,35,10.90
2018,05,31,09,36,10.90
2018,05,31,09,37,10.90
2018,05,31,09,38,10.90
2018,05,31,09,39,10.90
2018,05,31,09,40,10.90
2018,05,31,09,41,10.90
2018,05,31,09,42,10.90
2018,05,31,09,43,10.80
2018,05,31,09,44,10.80
2018,05,31,09,45,10.80
2018,05,31,09,46,10.80
2018,05,31,09,47,10.90
2018,05,31,09,48,10.90
2018,05,31,09,49,10.90
2018,05,31,09,50,11.00
2018,05,31,09,51,11.10
2018,05,31,09,52,11.20
2018,05,31,09,53,11.30
2018,05,31,09,54,11.40
2018,05,31,09,55,11.50
2018,05,31,09,56,11.60
2018,05,31,09,57,11.70
2018,05,31,09,58,11.90
2018,05,31,09,59,12.00
2018,05,31,10,00,12.10
2018,05,31,10,01,12.20
2018,05,31,10,02,12.30
2018,05,31,10,03,12.40
2018,05,31,10,04,12.50
2018,05,31,10,05,12.60
2018,05,31,10,06,12.60
2018,05,31,10,07,12.70
2018,05,31,10,08,12.70
2018,05,31,10,09,12.70
2018,05,31,10,10,12.70
2018,05,31,10,11,12.80
2018,05,31,10,12,12.80
2018,05,31,10,13,12.90
2018,05,31,10,14,13.00
2018,05,31,10,15,13.10
2018,05,31,10,16,13.20
2018,05,31,10,17,13.30
2018,05,31,10,18,13.40
2018,05,31,10,19,13.40
2018,05,31,10,20,13.50
2018,05,31,10,21,13.50
2018,05,31,10,22,13.60
2018,05,31,10,23,13.70
2018,05,31,10,24,13.70
2018,05,31,10,25,13.80
2018,05,31,10,26,13.80
2018,05,31,10,27,13.90
2018,05,31,10,28,13.90
2018,05,31,10,29,13.90
2018,05,31,10,30,14.00
2018,05,31,10,31,13.90
2018,05,31,10,32,13.90
2018,05,31,10,33,14.00
2018,05,31,10,34,14.00
2018,05,31,10,35,14.10
2018,05,31,10,36,14.10
2018,05,31,10,37,14.10
2018,05,31,10,38,14.20
2018,05,31,10,39,14.20
2018,05,31,10,40,14.30
2018,05,31,10,41,14.30
2018,05,31,10,42,14.20
2018,05,31,10,43,14.20
2018,05,31,10,44,14.10
2018,05,31,10,45,14.00
2018,05,31,10,46,13.90
2018,05,31,10,47,14.00
2018,05,31,10,48,14.10
2018,05,31,10,49,14.20
2018,05,31,10,50,14.40
2018,05,31,10,51,14.50
2018,05,31,10,52,14.60
2018,05,31,10,53,14.70
2018,05,31,10,54,14.80
2018,05,31,10,55,14.90
2018,05,31,10,56,15.00
2018,05,31,10,57,15.10
2018,05,31,10,58,15.20
2018,05,31,10,59,15.30
2018,05,31,11,00,15.40
2018,05,31,11,01,15.40
2018,05,31,11,02,15.50
2018,05,31,11,03,15.50
2018,05,31,11,04,15.60
2018,05,31,11,05,15.70
2018,05,31,11,06,15.80
2018,05,31,11,07,15.90
2018,05,31,11,08,16.00
2018,05,31,11,09,16.10
2018,05,31,11,10,16.20
2018,05,31,11,11,16.20
2018,05,31,11,12,16.20
2018,05,31,11,13,16.30
2018,05,31,11,14,16.30
2018,05,31,11,15,16.20
2018,05,31,11,16,16.20
2018,05,31,11,17,16.20
2018,05,31,11,18,16.20
2018,05,31,11,19,16.20
2018,05,31,11,20,16.20
2018,05,31,11,21,16.20
2018,05,31,11,22,16.20
2018,05,31,11,23,16.30
2018,05,31,11,24,16.30
2018,05,31,11,25,16.30
2018,05,31,11,26,16.30
2018,05,31,11,27,16.40
2018,05,31,11,28,16.40
2018,05,31,11,29,16.40
2018,05,31,11,30,16.50
2018,05,31,11,31,16.50
2018,05,31,11,32,16.50
2018,05,31,11,33,16.50
2018,05,31,11,34,16.50
2018,05,31,11,35,16.50
2018,05,31,11,36,16.50
2018,05,31,11,37,16.50
2018,05,31,11,38,16.50
2018,05,31,11,39,16.50
2018,05,31,11,40,16.50
2018,05,31,11,41,16.50
2018,05,31,11,42,16.50
2018,05,31,11,43,16.40
2018,05,31,11,44,16.30
2018,05,31,11,45,16.30
2018,05,31,11,46,16.30
2018,05,31,11,47,16.40
2018,05,31,11,48,16.40
2018,05,31,11,49,16.50
2018,05,31,11,50,16.50
2018,05,31,11,51,16.50
2018,05,31,11,52,16.40
2018,05,31,11,53,16.40
2018,05,31,11,54,16.40
2018,05,31,11,55,16.50
2018,05,31,11,56,16.50
2018,05,31,11,57,16.60
2018,05,31,11,58,16.50
2018,05,31,11,59,16.50
2018,05,31,12,00,16.50
2018,05,31,12,01,16.50
2018,05,31,12,02,16.50
2018,05,31,12,03,16.50
2018,05,31,12,04,16.60
2018,05,31,12,05,16.60
2018,05,31,12,06,16.60
2018,05,31,12,07,16.70
2018,05,31,12,08,16.70
2018,05,31,12,09,16.70
2018,05,31,12,10,16.70
2018,05,31,12,11,16.80
2018,05,31,12,12,16.80
2018,05,31,12,13,16.70
2018,05,31,12,14,16.70
2018,05,31,12,15,16.70
2018,05,31,12,16,16.70
2018,05,31,12,17,16.70
2018,05,31,12,18,16.70
2018,05,31,12,19,16.70
2018,05,31,12,20,16.70
2018,05,31,12,21,16.70
2018,05,31,12,22,16.70
2018,05,31,12,23,16.80
2018,05,31,12,24,16.80
2018,05,31,12,25,16.80
2018,05,31,12,26,16.70
2018,05,31,12,27,16.80
2018,05,31,12,28,16.70
2018,05,31,12,29,16.70
2018,05,31,12,30,16.70
2018,05,31,12,31,16.60
2018,05,31,12,32,16.60
2018,05,31,12,33,16.60
2018,05,31,12,34,16.60
2018,05,31,12,35,16.70
2018,05,31,12,36,16.70
2018,05,31,12,37,16.70
2018,05,31,12,38,16.70
2018,05,31,12,39,16.60
2018,05,31,12,40,16.70
2018,05,31,12,41,16.70
2018,05,31,12,42,16.70
2018,05,31,12,43,16.70
2018,05,31,12,44,16.70
2018,05,31,12,45,16.70
2018,05,31,12,46,16.70
2018,05,31,12,47,16.70
2018,05,31,12,48,16.70
2018,05,31,12,49,16.70
2018,05,31,12,50,16.70
2018,05,31,12,51,16.70
2018,05,31,12,52,16.70
2018,05,31,12,53,16.80
2018,05,31,12,54,16.90
2018,05,31,12,55,16.90
2018,05,31,12,56,16.90
2018,05,31,12,57,16.80
2018,05,31,12,58,16.80
2018,05,31,12,59,16.80
2018,05,31,13,00,16.80
2018,05,31,13,01,16.70
2018,05,31,13,02,16.70
2018,05,31,13,03,16.70
2018,05,31,13,04,16.80
2018,05,31,13,05,16.90
2018,05,31,13,06,16.90
2018,05,31,13,07,17.00
2018,05,31,13,08,17.00
2018,05,31,13,09,17.00
2018,05,31,13,10,16.90
2018,05,31,13,11,16.90
2018,05,31,13,12,16.90
2018,05,31,13,13,16.90
2018,05,31,13,14,16.90
2018,05,31,13,15,16.90
2018,05,31,13,16,16.80
2018,05,31,13,17,16.80
2018,05,31,13,18,16.80
2018,05,31,13,19,16.80
2018,05,31,13,20,16.80
2018,05,31,13,21,16.80
2018,05,31,13,22,16.80
2018,05,31,13,23,16.80
2018,05,31,13,24,16.80
2018,05,31,13,25,16.80
2018,05,31,13,26,16.90
2018,05,31,13,27,16.80
2018,05,31,13,28,16.80
2018,05,31,13,29,16.90
2018,05,31,13,30,16.90
2018,05,31,13,31,17.00
2018,05,31,13,32,17.00
2018,05,31,13,33,17.00
2018,05,31,13,34,16.90
2018,05,31,13,35,16.90
2018,05,31,13,36,16.90
2018,05,31,13,37,16.90
2018,05,31,13,38,16.90
2018,05,31,13,39,17.00
2018,05,31,13,40,17.00
2018,05,31,13,41,17.00
2018,05,31,13,42,17.00
2018,05,31,13,43,16.90
2018,05,31,13,44,16.90
2018,05,31,13,45,16.90
2018,05,31,13,46,16.90
2018,05,31,13,47,16.90
2018,05,31,13,48,16.80
2018,05,31,13,49,16.80
2018,05,31,13,50,16.70
2018,05,31,13,51,16.60
2018,05,31,13,52,16.60
2018,05,31,13,53,16.60
2018,05,31,13,54,16.60
2018,05,31,13,55,16.60
2018,05,31,13,56,16.70
2018,05,31,13,57,16.70
2018,05,31,13,58,16.80
2018,05,31,13,59,16.80
2018,05,31,14,00,16.80
2018,05,31,14,01,16.90
2018,05,31,14,02,16.90
2018,05,31,14,03,16.90
2018,05,31,14,04,17.00
2018,05,31,14,05,17.00
2018,05,31,14,06,17.00
2018,05,31,14,07,17.00
2018,05,31,14,08,17.00
2018,05,31,14,09,17.00
2018,05,31,14,10,17.10
2018,05,31,14,11,17.10
2018,05,31,14,12,17.10
2018,05,31,14,13,17.10
2018,05,31,14,14,17.10
2018,05,31,14,15,17.10
2018,05,31,14,16,17.00
2018,05,31,14,17,17.00
2018,05,31,14,18,16.90
2018,05,31,14,19,16.80
2018,05,31,14,20,16.90
2018,05,31,14,21,16.90
2018,05,31,14,22,16.90
2018,05,31,14,23,16.90
2018,05,31,14,24,16.90
2018,05,31,14,25,16.90
2018,05,31,14,26,17.00
2018,05,31,14,27,17.10
2018,05,31,14,28,17.20
2018,05,31,14,29,17.30
2018,05,31,14,30,17.30
2018,05,31,14,31,17.40
2018,05,31,14,32,17.50
2018,05,31,14,33,17.50
2018,05,31,14,34,17.60
2018,05,31,14,35,17.60
2018,05,31,14,36,17.60
2018,05,31,14,37,17.60
2018,05,31,14,38,17.60
2018,05,31,14,39,17.50
2018,05,31,14,40,17.50
2018,05,31,14,41,17.40
2018,05,31,14,42,17.40
2018,05,31,14,43,17.30
2018,05,31,14,44,17.30
2018,05,31,14,45,17.30
2018,05,31,14,46,17.30
2018,05,31,14,47,17.20
2018,05,31,14,48,17.20
2018,05,31,14,49,17.20
2018,05,31,14,50,17.10
2018,05,31,14,51,17.10
2018,05,31,14,52,17.10
2018,05,31,14,53,17.00
2018,05,31,14,54,17.00
2018,05,31,14,55,16.90
2018,05,31,14,56,16.80
2018,05,31,14,57,16.80
2018,05,31,14,58,16.70
2018,05,31,14,59,16.60
2018,05,31,15,00,16.50
2018,05,31,15,01,16.50
2018,05,31,15,02,16.50
2018,05,31,15,03,16.40
2018,05,31,15,04,16.40
2018,05,31,15,05,16.40
2018,05,31,15,06,16.40
2018,05,31,15,07,16.40
2018,05,31,15,08,16.40
2018,05,31,15,09,16.30
2018,05,31,15,10,16.30
2018,05,31,15,11,16.30
2018,05,31,15,12,16.30
2018,05,31,15,13,16.30
2018,05,31,15,14,16.30
2018,05,31,15,15,16.20
2018,05,31,15,16,16.30
2018,05,31,15,17,16.20
2018,05,31,15,18,16.20
2018,05,31,15,19,16.20
2018,05,31,15,20,16.10
2018,05,31,15,21,16.10
2018,05,31,15,22,16.20
2018,05,31,15,23,16.20
2018,05,31,15,24,16.20
2018,05,31,15,25,16.20
2018,05,31,15,26,16.30
2018,05,31,15,27,16.20
2018,05,31,15,28,16.30
2018,05,31,15,29,16.30
2018,05,31,15,30,16.30
2018,05,31,15,31,16.30
2018,05,31,15,32,16.40
2018,05,31,15,33,16.40
2018,05,31,15,34,16.40
2018,05,31,15,35,16.30
2018,05,31,15,36,16.30
2018,05,31,15,37,16.30
2018,05,31,15,38,16.30
2018,05,31,15,39,16.40
2018,05,31,15,40,16.40
2018,05,31,15,41,16.50
2018,05,31,15,42,16.50
2018,05,31,15,43,16.60
2018,05,31,15,44,16.70
2018,05,31,15,45,16.70
2018,05,31,15,46,16.70
2018,05,31,15,47,16.70
2018,05,31,15,48,16.60
2018,05,31,15,49,16.60
2018,05,31,15,50,16.60
2018,05,31,15,51,16.50
2018,05,31,15,52,16.50
2018,05,31,15,53,16.50
2018,05,31,15,54,16.60
2018,05,31,15,55,16.60
2018,05,31,15,56,16.70
2018,05,31,15,57,16.80
2018,05,31,15,58,16.80
2018,05,31,15,59,16.80
2018,05,31,16,00,16.80
2018,05,31,16,01,16.90
2018,05,31,16,02,16.80
2018,05,31,16,03,16.70
2018,05,31,16,04,16.70
2018,05,31,16,05,16.60
2018,05,31,16,06,16.60
2018,05,31,16,07,16.50
2018,05,31,16,08,16.40
2018,05,31,16,09,16.40
2018,05,31,16,10,16.30
2018,05,31,16,11,16.30
2018,05,31,16,12,16.20
2018,05,31,16,13,16.10
2018,05,31,16,14,16.10
2018,05,31,16,15,16.00
2018,05,31,16,16,15.90
2018,05,31,16,17,15.90
2018,05,31,16,18,15.80
2018,05,31,16,19,15.80
2018,05,31,16,20,15.80
2018,05,31,16,21,15.80
2018,05,31,16,22,15.80
2018,05,31,16,23,15.70
2018,05,31,16,24,15.70
2018,05,31,16,25,15.60
2018,05,31,16,26,15.60
2018,05,31,16,27,15.50
2018,05,31,16,28,15.50
2018,05,31,16,29,15.50
2018,05,31,16,30,15.50
2018,05,31,16,31,15.50
2018,05,31,16,32,15.50
2018,05,31,16,33,15.50
2018,05,31,16,34,15.50
2018,05,31,16,35,15.40
2018,05,31,16,36,15.50
2018,05,31,16,37,15.60
2018,05,31,16,38,15.60
2018,05,31,16,39,15.60
2018,05,31,16,40,15.60
2018,05,31,16,41,15.50
2018,05,31,16,42,15.40
2018,05,31,16,43,15.40
2018,05,31,16,44,15.30
2018,05,31,16,45,15.30
2018,05,31,16,46,15.30
2018,05,31,16,47,15.30
2018,05,31,16,48,15.20
2018,05,31,16,49,15.30
2018,05,31,16,50,15.30
2018,05,31,16,51,15.30
2018,05,31,16,52,15.30
2018,05,31,16,53,15.30
2018,05,31,16,54,15.30
2018,05,31,16,55,15.30
2018,05,31,16,56,15.40
2018,05,31,16,57,15.40
2018,05,31,16,58,15.40
2018,05,31,16,59,15.30
2018,05,31,17,00,15.30
2018,05,31,17,01,15.30
2018,05,31,17,02,15.30
2018,05,31,17,03,15.40
2018,05,31,17,04,15.50
2018,05,31,17,05,15.60
2018,05,31,17,06,15.70
2018,05,31,17,07,15.70
2018,05,31,17,08,15.70
2018,05,31,17,09,15.80
2018,05,31,17,10,15.80
2018,05,31,17,11,15.70
2018,05,31,17,12,15.70
2018,05,31,17,13,15.60
2018,05,31,17,14,15.50
2018,05,31,17,15,15.50
2018,05,31,17,16,15.50
2018,05,31,17,17,15.60
2018,05,31,17,18,15.70
2018,05,31,17,19,15.70
2018,05,31,17,20,15.80
2018,05,31,17,21,15.90
2018,05,31,17,22,16.00
2018,05,31,17,23,16.00
2018,05,31,17,24,16.10
2018,05,31,17,25,16.10
2018,05,31,17,26,16.10
2018,05,31,17,27,16.00
2018,05,31,17,28,15.90
2018,05,31,17,29,15.70
2018,05,31,17,30,15.60
2018,05,31,17,31,15.50
2018,05,31,17,32,15.40
2018,05,31,17,33,15.40
2018,05,31,17,34,15.30
2018,05,31,17,35,15.30
2018,05,31,17,36,15.20
2018,05,31,17,37,15.20
2018,05,31,17,38,15.00
2018,05,31,17,39,14.90
2018,05,31,17,40,14.80
2018,05,31,17,41,14.80